This is the latest recevied weather packets stored in our database for station/object W4KAB. If no packets are shown the sender has not sent any weather packets the latest 10 day(s).
| Time | Temp. | Humidity | Pressure | Rain* | Wind** | Luminosity | Snow |
|---|---|---|---|---|---|---|---|
| 1777824622 | 15° C | 32% | 1021.4 hPa | 0 mm | - | 757 W/m² | - |
| 1777824320 | 15° C | 34% | 1021.4 hPa | 0 mm | - | 764 W/m² | - |
| 1777824015 | 14.44° C | 33% | 1021.5 hPa | 0 mm | - | 744 W/m² | - |
| 1777823712 | 14.44° C | 34% | 1021.7 hPa | 0 mm | - | 757 W/m² | - |
| 1777823409 | 15° C | 33% | 1021.6 hPa | 0 mm | - | 792 W/m² | - |
| 1777823107 | 15° C | 37% | 1021.7 hPa | 0 mm | - | 787 W/m² | - |
| 1777822804 | 14.44° C | 36% | 1021.5 hPa | 0 mm | - | 785 W/m² | - |
| 1777822502 | 14.44° C | 38% | 1021.6 hPa | 0 mm | - | 784 W/m² | - |
| 1777822199 | 14.44° C | 35% | 1021.6 hPa | 0 mm | - | 792 W/m² | - |
| 1777821896 | 14.44° C | 38% | 1021.6 hPa | 0 mm | - | 813 W/m² | - |
| 1777821594 | 13.89° C | 39% | 1021.7 hPa | 0 mm | - | 810 W/m² | - |
| 1777821292 | 13.33° C | 40% | 1021.6 hPa | 0 mm | - | 788 W/m² | - |
| 1777820989 | 12.78° C | 42% | 1021.6 hPa | 0 mm | - | 770 W/m² | - |
| 1777820685 | 12.22° C | 40% | 1021.8 hPa | 0 mm | - | 677 W/m² | - |
| 1777820381 | 12.22° C | 41% | 1021.7 hPa | 0 mm | - | 43 W/m² | - |
| 1777820079 | 11.67° C | 42% | 1021.6 hPa | 0 mm | - | 36 W/m² | - |
| 1777819776 | 11.67° C | 42% | 1021.8 hPa | 0 mm | - | 32 W/m² | - |
| 1777819474 | 11.67° C | 42% | 1021.8 hPa | 0 mm | - | 30 W/m² | - |
| 1777819172 | 11.11° C | 44% | 1021.7 hPa | 0 mm | - | 47 W/m² | - |
| 1777818868 | 11.11° C | 45% | 1021.7 hPa | 0 mm | - | 29 W/m² | - |
| 1777818564 | 11.11° C | 45% | 1021.8 hPa | 0 mm | - | 28 W/m² | - |
| 1777818262 | 11.11° C | 46% | 1021.7 hPa | 0 mm | - | 28 W/m² | - |
| 1777817957 | 10.56° C | 44% | 1021.6 hPa | 0 mm | - | 35 W/m² | - |
| 1777817655 | 10.56° C | 48% | 1021.8 hPa | 0 mm | - | 30 W/m² | - |
| 1777817351 | 10.56° C | 53% | 1021.9 hPa | 0 mm | - | 26 W/m² | - |
* Rain latest hour (hover to see other rain measurements)
** Current wind speed in m/s (hover to see current wind gust speed)